Starlink 6369

operational
NORAD ID: 57374 Int'l Des: 2023-099 Owner: SPXS Country: US Constellation: starlink
LEOCIRCULAR

Über Starlink 6369

Beschreibung wird geladen...

Live-Position

3D-Globus wird geladen...

Nächste Überflüge

Höhenverlauf

Altitude vs Time

uPlot chart will show altitude changes over time

Zweizeiliger Elementsatz

1 57374U 23099AY 25354.89807857 -.00000581 00000-0 -27907-4 0 9995
2 57374 43.0054 291.1151 0001314 271.3981 88.6711 15.02536962134563
Epoch: 20. Dez. 2025 • Age: 9 hours

Aktueller Status

Höhe 558.5 km
Geschwindigkeit 7.58 km/s
Subsatellitenpunkt 5.59°N, 81.31°W
Startdatum 16. Juli 2023
Alter 2.4 years
Typ internet

Technische Details

Klassifizierung Payload
Masse 305.00 kg
Trockenmasse 290.00 kg
Gesamtmasse 305.00 kg
Länge 0.20 m
Durchmesser 2.80 m
Spannweite 9.00 m
Form Box + pan
Hersteller SPXS
Bus-Typ Starlink
Phasenstatus In Orbit
Besitzer/Staat SPXS/US

Große Konstellationen

Loading constellations...